Погода в Магнитогорске

Погода в Магнитогорске : погода сейчас, прогноз погоды и архив. Всё, что Вы хотите узнать о погоде в Магнитогорске!

Хотите узнать прогноз погоды в Магнитогорске? Тогда Вам сюда: Погода в Магнитогорске

Поиск расширенной информации на нашем сайте:

Полезная информация:

Другие новости

Новости СМИ2

Главная страница сайта

Новости сайта

03.07.2017

Напоминаем, что на нашем специализированном сайте Метеоцентр.Азия вы можете получить высокодетализированные автоматические прогнозы погоды по пунктам России, СНГ и мира в авиационном формате (включающие направление и скорость ветра, видимость, явления погоды, количество и форму облачности, нижнюю и верхнюю границу облачности).

Рекомендуем:

Погода в Магнитогорске - сегодня

Время (UTC), дата Ветер
(°,м/с) 
Видим.   Явления Облачность Т
(°С)
Тd
(°С)
f(%) Тe
(°С)
Pmin
(гПа)
dP
(гПа)
Po
(мм)
O2
(г/м3)
Тmin Tmax R s Состояние
почвы
09 15.09.19 230 (ЮЗ) 5-11{11}  20000 м    4/4 600 м 
[Sc]
+24.6 +1.5 22 +25  1013  -1.3  727  269           
12 15.09.19 250 (З) 5{12}  20000 м    8/8 600 м 
[Sc]
+21.6 +1.9 27 +22  1012.7  -0.7  727  271           
15 15.09.19 250 (З) 2{10}  10 км    8/8 600 м 
[Sc]
+17.6 +3.9 40 +18  1012.4  -0.9  726  274    +24.7       
18 15.09.19 230 (ЮЗ) 10 км    9/9 600 м 
[Sc]
+13.2 +4.6 56 +14  1011.8  -1.2  725  278           
21 15.09.19 120 (ЮВ) 10 км    10/10 600 м 
[Sc]
+11.9 +5.2 63 +13  1011.4  -0.6  725  279           
00 16.09.19 190 (Ю) 10 км    10/10 600 м 
[Sc]
+11.2 +6.2 71 +12  1009.9  -1.6  724  279           
03 16.09.19 260 (З) 20000 м    8/8 600 м 
[Sc]
+12.8 +6.2 64 +13  1009  -0.6  723  277  +10.9        сухая 
06 16.09.19 350 (С) 20000 м  {дождь}  9/9 600 м 
[Sc]
+11.6 +6.9 73 +11  1009.1  723  278           
09 16.09.19 270 (З) 20000 м    8/8 600 м 
[Sc]
+15.8 +2.2 40 +16  1008.3  -0.2  723  275           
12 16.09.19 270 (З) 5-11{11}  20000 м    8/8 600 м 
[Sc]
+14.4 -0.5 36 +14  1008.5  -0.1  723  277           
15 16.09.19 200 (Ю) 1{10}  10 км    8/8 600 м 
[Sc]
+9.2 +4.2 71 +10  1009.7  0.5  723  281    +16.4  0.0     
18 16.09.19 230 (ЮЗ) 10 км    10/10 600 м 
[Sc]
+10.4 +2.6 58 +11  1009.1  -0.4  723  280           
21 16.09.19 230 (ЮЗ) 3{11}  10 км    10/10 600 м 
[Sc]
+10 +2.9 61 +10  1008.4  -0.7  722  280           
00 17.09.19 190 (Ю) 10 км    10/10 600 м 
[Sc]
+9.4 +2.6 62 +9  1007.1  -1.4  721  280           
03 17.09.19 180 (Ю) 20000 м    10/10 600 м 
[Sc]
+10.2 +2.3 58 +10  1006.2  -0.7  721  280  +7.3        сухая 
06 17.09.19 220 (ЮЗ) 5-10{10}  20000 м    8/8 600 м 
[Sc]
+14.1 +2 44 +14  1005.8  0.2  721  276           
09 17.09.19 240 (ЮЗ) 7-11{12}  20000 м    4/4 600 м 
[Sc]
+17.7 +2.4 36 +17  1005  -0.2  721  272           
12 17.09.19 220 (ЮЗ) 5-11{11}  20000 м    6/6 600 м 
[Sc]
+17.6 +3.8 40 +18  1005  721  272           
15 17.09.19 210 (ЮЗ) 3{13}  10 км    9/9 600 м 
[Sc]
+14.8 +4.1 49 +15  1005.7  0.3  721  275    +19       
18 17.09.19 230 (ЮЗ) 10 км  слаб. дождь  10/10 600 м 
[Sc]
+14 +5.8 58 +14  1005.9  0.1  721  275           
21 17.09.19 220 (ЮЗ) 10 км  {дождь}  10/10 600 м 
[Sc]
+12.5 +4.7 59 +14  1005.2  -0.9  720  277           
00 18.09.19 030 (СВ) 10 км  {дождь}  10/10 600 м 
[Sc]
+9.8 +5.2 73 +11  1004.2  -1.3  719  279           
03 18.09.19 тихо ()   20000 м    8/8 600 м 
[Sc]
+10.3 +6.5 77 +10  1003.8  -0.3  719  278  +8.1    0.0    сухая 
06 18.09.19 240 (ЮЗ) 20000 м    10/10 600 м 
[Sc]
+14.5 +5.9 56 +16  1003.2  0.1  719  274           
09 18.09.19 260 (З) 10 км  слаб. дождь  10/10 600 м 
[Sc]
+13.2 +8.6 74 +13  1003.6  0.2  719  275           
Время (UTC), дата Ветер
(°,м/с) 
Видим.   Явления Облачность Т
(°С)
Тd
(°С)
f(%) Тe
(°С)
Pmin
(гПа)
dP
(гПа)
Po
(мм)
O2
(г/м3)
Тmin Tmax R s Состояние
почвы

Для получения пояснительной информации подведите курсор к названию столбца.

ПОГОДА в Магнитогорске - архив

Всё, что Вы хотите узнать о погоде в Магнитогорске - удобно и подробно!

Выберите нужную дату (начиная с 1 января 2018* года) и нажмите кнопку "Найти".
Будут отображены архивные сводки погоды по пункту Магнитогорск, начиная с указанной даты.


Отображать данные в формате CSV (для использования в таблицах Excel)


Внимание! Наш архив погоды предназначен исключительно для личного некоммерческого использования в познавательных целях. Если Вам необходимы официальные справки о состоянии погоды (для производственных, юридических, коммерческих и т.п. целей), обращайтесь в органы Росгидромета.

*Примечание: данная дата относится к архиву по метеостанциям СССР (Россия, СНГ, Балтия).
Архив по метеостанциям Зарубежной Европы и Азии (кроме Китая) хранится 10 дней, по другим регионам земного шара (Китай, Африка, Америка, Австралия, Океания) - 1 день.

Магнитогорск - район местоположения метеостанции


Название, широта, долгота, высота метеостанции:
Магнитогорск 53.3°ш. 59.1°д. 384 м над ур. моря [Российская Федерация]

Дополнительная информация

В oтличие oт бoльшинства пoгoдных сайтoв мы публикуем пoдрoбную метеoинфoрмацию в детальнoм прoфессиoнальнoм фoрмате.

Характеристики температуры и влажнoсти вoздуха измеряются на высoте 2 м в тени вдали oт зданий и деревьев.
Скoрoсть ветра измеряется на высoте 10 м (на урoвне рoста челoвека скoрoсть ветра ниже в 1.5-2 раза). Если метеoстанция нахoдится в гoрoде или в лесу, тo скoрoсть ветра занижена на 2-4 м/с пo сравнению с oткрытым местoм. Скoрoсть ветра над акватoриями крупных рек и oзёр, а также на вершинах хoлмoв на 2-5 м/с выше, чем в oбычных услoвиях.
Атмoсфернoе давление в разных тoчках местнoсти мoжет значительнo oтличаться oт давления на метеoстанции, в зависимoсти oт услoвий рельефа (при пoдъёме на 10 м давление пoнижается примернo на 1 мм рт.ст.).